TimeEST,TemperatureF,Dew PointF,Humidity,Sea Level PressureIn,VisibilityMPH,Wind Direction,Wind SpeedMPH,Gust SpeedMPH,PrecipitationIn,Events,Conditions,WindDirDegrees,DateUTC
12:53 AM,28.9,24.1,82,29.95,7.0,WSW,13.8,21.9,0.00,Snow,Light Snow,250,2012-12-23 05:53:00
1:14 AM,28.4,24.8,86,29.90,2.5,WSW,16.1,-,0.00,Snow,Light Snow,240,2012-12-23 06:14:00
1:28 AM,28.4,24.8,86,29.90,4.0,WSW,15.0,-,0.00,Snow,Light Snow,250,2012-12-23 06:28:00
1:53 AM,30.0,24.1,79,29.94,9.0,WSW,13.8,-,0.00,,Overcast,240,2012-12-23 06:53:00
2:53 AM,30.9,23.0,72,29.94,10.0,WSW,12.7,-,0.00,,Overcast,250,2012-12-23 07:53:00
3:53 AM,30.9,23.0,72,29.93,10.0,West,12.7,-,N/A,,Overcast,260,2012-12-23 08:53:00
4:53 AM,30.9,23.0,72,29.90,10.0,WSW,13.8,19.6,N/A,,Overcast,250,2012-12-23 09:53:00
5:53 AM,32.0,23.0,69,29.89,10.0,West,18.4,-,N/A,,Overcast,260,2012-12-23 10:53:00
6:53 AM,30.9,24.1,76,29.89,10.0,WSW,17.3,-,N/A,,Scattered Clouds,250,2012-12-23 11:53:00
7:01 AM,30.2,24.8,80,29.84,10.0,WSW,15.0,23.0,N/A,,Mostly Cloudy,250,2012-12-23 12:01:00
7:45 AM,30.2,24.8,80,29.85,10.0,WSW,10.4,-,N/A,,Overcast,250,2012-12-23 12:45:00
7:53 AM,30.9,25.0,79,29.89,10.0,WSW,8.1,-,N/A,,Overcast,250,2012-12-23 12:53:00
8:53 AM,30.9,26.1,82,29.89,8.0,WSW,10.4,-,N/A,,Overcast,240,2012-12-23 13:53:00
9:53 AM,30.9,25.0,79,29.89,10.0,WSW,12.7,-,N/A,,Mostly Cloudy,250,2012-12-23 14:53:00
9:58 AM,30.2,24.8,80,29.84,10.0,WSW,11.5,-,N/A,,Mostly Cloudy,250,2012-12-23 14:58:00
10:53 AM,33.1,23.0,66,29.88,10.0,WSW,12.7,-,N/A,,Scattered Clouds,250,2012-12-23 15:53:00
11:53 AM,34.0,23.0,64,29.85,10.0,West,20.7,27.6,N/A,,Scattered Clouds,260,2012-12-23 16:53:00
12:53 PM,32.0,25.0,75,29.85,10.0,West,13.8,-,N/A,,Mostly Cloudy,270,2012-12-23 17:53:00
1:53 PM,33.1,23.0,66,29.85,10.0,WSW,13.8,-,N/A,,Mostly Cloudy,250,2012-12-23 18:53:00
2:53 PM,34.0,24.1,67,29.86,10.0,WSW,15.0,-,N/A,,Scattered Clouds,240,2012-12-23 19:53:00
3:53 PM,33.1,24.1,70,29.87,10.0,WSW,13.8,-,N/A,,Mostly Cloudy,240,2012-12-23 20:53:00
4:53 PM,33.1,25.0,72,29.89,10.0,WSW,17.3,23.0,N/A,,Overcast,250,2012-12-23 21:53:00
5:07 PM,33.8,24.8,70,29.85,10.0,WSW,17.3,-,0.00,Snow,Light Snow,250,2012-12-23 22:07:00
5:53 PM,33.1,25.0,72,29.91,9.0,West,11.5,-,0.00,Snow,Light Snow,260,2012-12-23 22:53:00
6:14 PM,33.8,24.8,70,29.88,9.0,West,12.7,-,0.00,Snow,Light Snow,260,2012-12-23 23:14:00
6:45 PM,33.8,24.8,70,29.89,9.0,WNW,17.3,-,0.00,Snow,Light Snow,290,2012-12-23 23:45:00
6:53 PM,33.1,23.0,66,29.94,9.0,WNW,17.3,-,0.00,Snow,Light Snow,290,2012-12-23 23:53:00
7:34 PM,32.0,21.2,64,29.93,9.0,WNW,17.3,25.3,0.00,Snow,Light Snow,300,2012-12-24 00:34:00
7:53 PM,30.9,21.9,69,29.98,9.0,WNW,15.0,-,0.00,Snow,Light Snow,290,2012-12-24 00:53:00
8:53 PM,30.0,19.9,66,30.00,9.0,NW,17.3,23.0,0.00,Snow,Light Snow,310,2012-12-24 01:53:00
9:53 PM,28.9,19.0,67,30.02,9.0,NW,13.8,-,0.00,Snow,Light Snow,320,2012-12-24 02:53:00
10:53 PM,28.9,19.9,69,30.04,9.0,WNW,10.4,-,0.00,Snow,Light Snow,290,2012-12-24 03:53:00
11:53 PM,28.9,19.9,69,30.04,10.0,West,15.0,-,0.00,,Overcast,260,2012-12-24 04:53:00